This demonstration page uses our WeatherBlox Daily Observations layout. Learn more.

Left ArrowRight Arrow

53.62937, 11.41316

Hourly Observations for March 25, 2021

Temp ( °F °C ) Dew Point ( °F °C ) Humidity (%) Winds ( mph kmh ) Pressure ( in mb ) Visibility ( mi km ) Precip ( " mm )
7:50 am 07:50 Mostly Cloudy with Mist and Fog 45 7 41 5 87 87 SW 5 7 30.09 1019 3 5 N/A
8:20 am 08:20 Mostly Cloudy 45 7 41 5 87 87 SW 6 9 30.09 1019 3 5 N/A
8:50 am 08:50 Mostly Cloudy 45 7 41 5 87 87 SSW 7 11 30.12 1020 4 6 N/A
9:20 am 09:20 Mostly Cloudy 45 7 39 4 81 81 S 7 11 30.12 1020 4 7 N/A
9:50 am 09:50 Mostly Cloudy 46 8 39 4 76 76 S 8 13 30.12 1020 30 48 N/A
10:20 am 10:20 Partly Cloudy 46 8 39 4 76 76 S 8 13 30.12 1020 30 48 N/A
10:50 am 10:50 Mostly Sunny 48 9 41 5 76 76 S 7 11 30.12 1020 30 48 N/A
11:20 am 11:20 Mostly Sunny 52 11 41 5 67 67 SSW 7 11 30.12 1020 30 48 N/A
11:50 am 11:50 Mostly Sunny 52 11 39 4 62 62 SW 8 13 30.09 1019 30 48 N/A
12:20 pm 12:20 Mostly Sunny 54 12 39 4 58 58 SSW 9 15 30.09 1019 30 48 N/A
12:50 pm 12:50 Mostly Sunny 55 13 39 4 55 55 SSW 10 17 30.09 1019 30 48 N/A
1:20 pm 13:20 Partly Cloudy 55 13 37 3 51 51 SW 9 15 30.09 1019 30 48 N/A
1:50 pm 13:50 Partly Cloudy 54 12 37 3 54 54 SW 9 15 30.09 1019 30 48 N/A
2:20 pm 14:20 Partly Cloudy 55 13 37 3 51 51 SW 9 15 30.09 1019 30 48 N/A
2:50 pm 14:50 Mostly Cloudy 55 13 37 3 51 51 SW 7 11 30.06 1018 30 48 N/A
3:20 pm 15:20 Mostly Cloudy 55 13 37 3 51 51 SW 7 11 30.06 1018 30 48 N/A
3:50 pm 15:50 Mostly Sunny 55 13 39 4 55 55 SW 6 9 30.06 1018 7 11 N/A
4:20 pm 16:20 Mostly Sunny 55 13 39 4 55 55 SSW 6 9 30.06 1018 7 11 N/A
4:50 pm 16:50 Mostly Sunny 55 13 37 3 51 51 SSW 5 7 30.06 1018 7 11 N/A
5:20 pm 17:20 Mostly Sunny 54 12 37 3 54 54 SSW 6 9 30.06 1018 7 11 N/A
5:50 pm 17:50 Mostly Sunny 54 12 37 3 54 54 S 3 6 30.06 1018 7 11 N/A
6:20 pm 18:20 Mostly Sunny 54 12 37 3 54 54 SSE 2 4 30.06 1018 7 11 N/A
6:50 pm 18:50 Mostly Clear 54 12 37 3 54 54 SE 3 6 30.06 1018 7 11 N/A
7:20 pm 19:20 Mostly Clear 50 10 37 3 62 62 SE 3 6 30.06 1018 7 11 N/A
7:50 pm 19:50 Mostly Clear 50 10 39 4 67 67 VRB 1 2 30.06 1018 7 11 N/A

Powered by AerisWeather